Tracking 34717 objects as of 14-Jul-2026
HD Live streaming from Space Station
objects crossing your sky now

STARLINK-31837

Track STARLINK-31837 now!
10-day predictions
STARLINK-31837 is classified as:


NORAD ID: 61514
Int'l Code: 2024-183F
Perigee: 469.1 km
Apogee: 470.7 km
Inclination: 53.2 °
Period: 93.8 minutes
Semi major axis: 6840 km
RCS: Unknown
Launch date: October 15, 2024
Source: United States (US)
Launch site: AIR FORCE EASTERN TEST RANGE (AFETR)
Your satellite tracking list
Your tracking list is empty




NASA's NSSDC Master Catalog

Two Line Element Set (TLE):
1 61514U 24183F   26195.16668980  .00037724  00000-0  11230-2 0  9994
2 61514  53.1590 274.8212 0001159  91.7151  92.0884 15.34372208  5751
Source of the keplerian elements: AFSPC